Location: Bartshausen
(51.8454°N, 9.8167°E)
Time: 10:13:17
(UTC+00:00)

CZ-2C R/B - Pass Details

Date: 08 November 2025
Orbit: 664 x 773 km, 98.4° (Epoch: 11 December)

Event Time Altitude Azimuth Distance (km) Brightness Sun altitude
Rises 04:12:19 0° 11° (N) 3,169 5.8 -21.0°
Reaches altitude 10° 04:14:37 10° 7° (N) 2,259 5.0 -20.7°
Maximum altitude 04:19:26 52° 292° (WNW) 938 2.5 -19.9°
Enters shadow 04:21:37 30° 233° (SW) 1,331 3.3 -19.6°
